Location: Hopville
(44.8032°N, 123.1329°W)
Time: 03:32:56
(UTC+00:00)

MOS 1-B - Pass Details

Date: 24 January 2021
Orbit: 905 x 914 km, 99.4° (Epoch: 26 February)

Event Time Altitude Azimuth Distance (km) Brightness Sun altitude
Rises 14:30:13 0° 15° (NNE) 3,543 7.4 -12.4°
Reaches altitude 10° 14:32:38 10° 15° (NNE) 2,597 6.8 -11.9°
Maximum altitude 14:38:26 88° 102° (ESE) 912 4.4 -10.9°
Drops below altitude 10° 14:44:12 10° 196° (SSW) 2,579 6.7 -10.0°
Sets 14:46:36 0° 197° (SSW) 3,517 7.4 -9.6°
